{"data":{"norad_id":51868,"epoch":"2026-09-19T11:18:54.654624Z","epoch_age_seconds":141089,"freshness":"FRESH","line1":"1 51868U 22022S   26262.47146591  .00000709  00000+0  31236-4 0  9995","line2":"2 51868  53.1607 208.1991 0001309  87.8209 272.2944 15.35403750252517","mean_motion":15.3540375,"eccentricity":0.0001309,"inclination_deg":53.1607,"raan_deg":208.1991,"arg_perigee_deg":87.8209,"mean_anomaly_deg":272.2944,"bstar":3.1236e-5,"rev_number":25251,"period_min":93.78640634426,"perigee_km":458.8264333907,"apogee_km":460.61658474837,"semimajor_km":6837.8585090695,"source":"CELESTRAK","updated_at":"2026-09-20T09:00:39.947748Z"}}